Total_Precipitation_Accumulation
0.15 0.21 0.24 0.25 0.24 0.22 0.17 0.16 0.24 0.36 0.51 0.69 0.87 1.13 1.05 1.06 1.13 1.19 1.12 1.08 1.03 1.07 1.17 1.34 1.39 1.39 1.44 1.49 1.55 1.71 1.72 1.70 1.81 2.01 2.08 2.14 2.14 2.15 2.20 2.19 2.09 2.23 2.23 2.32
0.17 0.16 0.16 0.19 0.20 0.18 0.14 0.13 0.15 0.29 0.54 0.75 0.87 0.98 1.02 0.92 0.98 1.20 1.16 1.09 1.10 1.19 1.31 1.33 1.27 1.28 1.29 1.25 1.33 1.56 1.70 1.80 1.90 1.97 1.95 2.04 2.07 2.06 2.09 2.14 2.20 2.24 2.23 2.33
0.24 0.18 0.21 0.28 0.25 0.21 0.19 0.18 0.20 0.34 0.57 0.77 0.93 0.87 0.95 0.96 0.97 0.96 0.98 1.00 1.13 1.25 1.27 1.28 1.33 1.33 1.23 1.13 1.22 1.55 1.68 1.75 1.98 2.09 2.00 2.08 2.11 2.14 2.13 2.16 2.32 2.37 2.45 2.50
0.32 0.35 0.42 0.34 0.30 0.29 0.33 0.36 0.33 0.38 0.55 0.78 1.00 0.98 0.94 0.97 0.97 0.91 0.80 0.91 1.04 1.14 1.19 1.24 1.27 1.26 1.21 1.20 1.25 1.53 1.79 1.93 2.24 2.41 2.24 2.24 2.27 2.28 2.34 2.46 2.51 2.56 2.59 2.50
0.50 0.54 0.55 0.49 0.48 0.51 0.60 0.78 0.62 0.61 0.81 0.86 0.85 0.93 1.03 1.00 0.96 0.89 0.91 1.00 1.02 1.12 1.24 1.37 1.52 1.54 1.48 1.52 1.62 1.80 2.00 2.17 2.44 2.68 2.78 2.72 2.55 2.61 2.69 2.70 2.65 2.71 2.76 2.73
0.67 0.78 0.89 0.81 0.70 0.65 0.78 1.26 1.02 0.87 0.93 0.95 0.96 1.21 1.22 0.96 0.86 0.83 0.91 1.05 1.19 1.35 1.38 1.44 1.64 1.66 1.70 1.83 2.04 2.16 2.15 2.19 2.42 2.70 2.82 2.79 2.76 2.95 3.05 2.92 2.80 2.83 2.70 2.57
0.79 0.90 0.94 0.84 0.71 0.78 1.37 1.78 1.29 1.14 1.16 1.23 1.24 1.23 1.12 1.00 0.99 0.89 0.89 1.03 1.09 1.10 1.25 1.39 1.54 1.70 1.90 2.00 2.13 2.23 2.32 2.31 2.43 2.69 3.00 2.96 3.02 3.11 3.16 3.14 3.15 3.13 3.00 2.85
0.93 1.19 1.35 0.89 0.81 1.24 1.64 1.46 1.51 1.52 1.48 1.40 1.24 1.09 1.01 1.00 1.06 0.96 0.94 1.02 1.09 1.07 1.16 1.36 1.60 1.86 2.01 2.08 2.19 2.37 2.43 2.43 2.50 2.78 2.91 2.94 3.10 3.16 3.27 3.40 3.39 3.34 3.29 3.00
1.26 1.50 1.36 1.08 1.17 1.27 1.37 1.50 1.54 1.47 1.48 1.42 1.34 1.22 1.15 1.15 1.14 1.11 1.16 1.15 1.25 1.31 1.33 1.47 1.67 1.91 2.16 2.22 2.23 2.20 2.20 2.24 2.35 2.53 2.67 2.85 2.97 2.92 3.00 3.15 3.12 3.09 3.02 2.85
1.71 1.68 1.48 1.33 1.28 1.29 1.28 1.35 1.32 1.24 1.20 1.18 1.19 1.19 1.18 1.21 1.30 1.33 1.41 1.37 1.40 1.55 1.59 1.64 1.76 1.94 2.11 2.14 2.15 2.12 2.05 2.05 2.18 2.41 2.56 2.67 2.75 2.72 2.77 2.80 2.85 2.88 2.87 2.77
2.23 2.19 1.95 1.77 1.59 1.52 1.40 1.40 1.34 1.23 1.20 1.14 1.05 1.09 1.12 1.12 1.24 1.34 1.40 1.44 1.44 1.61 1.74 1.74 1.80 1.99 2.14 2.18 2.22 2.25 2.20 2.17 2.30 2.38 2.45 2.60 2.69 2.74 2.76 2.73 2.72 2.73 2.69 2.60
2.59 2.37 2.24 2.20 1.83 1.72 1.66 1.52 1.38 1.37 1.35 1.23 1.09 1.08 1.15 1.17 1.24 1.30 1.39 1.54 1.60 1.70 1.76 1.75 1.80 1.94 2.04 2.21 2.40 2.48 2.40 2.36 2.33 2.28 2.34 2.33 2.36 2.34 2.35 2.31 2.32 2.29 2.26 2.17
2.00 2.08 2.12 2.26 2.08 1.78 1.61 1.51 1.43 1.45 1.46 1.33 1.22 1.17 1.11 1.14 1.24 1.35 1.51 1.67 1.84 1.93 1.87 1.80 1.85 1.96 2.02 2.16 2.42 2.57 2.49 2.36 2.24 2.14 2.13 2.14 2.19 2.25 2.30 2.24 2.19 2.10 2.02 1.88
1.88 2.23 2.40 2.32 2.37 2.19 1.88 1.68 1.53 1.47 1.44 1.31 1.27 1.26 1.26 1.31 1.35 1.47 1.70 1.85 1.84 1.89 1.87 1.79 1.79 1.92 1.98 2.11 2.38 2.56 2.51 2.40 2.19 2.08 2.05 2.05 2.18 2.25 2.24 2.22 2.17 1.97 1.84 1.78
2.05 2.17 2.27 2.14 2.15 2.24 2.22 2.09 1.89 1.73 1.58 1.48 1.49 1.52 1.45 1.41 1.44 1.52 1.63 1.79 1.92 1.92 1.80 1.71 1.72 1.78 1.84 1.98 2.19 2.37 2.45 2.38 2.26 2.22 2.22 2.12 2.08 2.12 2.10 2.09 2.12 2.04 1.85 1.81
1.94 1.88 1.95 2.09 2.18 2.17 2.16 2.16 2.09 1.97 1.76 1.64 1.63 1.58 1.48 1.47 1.49 1.52 1.57 1.69 1.99 2.15 2.00 1.80 1.71 1.72 1.80 1.95 2.05 2.05 2.13 2.18 2.16 2.21 2.20 2.14 2.13 2.15 2.19 2.23 2.25 2.13 1.99 1.88
1.78 1.70 1.72 1.85 2.00 2.12 2.13 1.98 1.92 1.89 1.84 1.72 1.64 1.59 1.55 1.53 1.59 1.73 1.81 1.86 1.91 1.93 1.94 1.93 1.83 1.76 1.82 1.95 2.08 2.01 1.88 1.84 1.83 1.80 1.85 1.96 2.02 2.12 2.24 2.30 2.32 2.20 1.97 1.82
1.50 1.50 1.60 1.67 1.75 1.93 1.99 1.82 1.70 1.68 1.69 1.65 1.60 1.55 1.54 1.61 1.84 2.09 2.14 2.05 2.04 1.94 1.78 1.75 1.77 1.78 1.86 1.92 2.03 2.04 1.93 1.76 1.61 1.57 1.62 1.76 1.98 2.13 2.21 2.16 2.11 2.05 1.94 1.86
1.31 1.35 1.42 1.45 1.49 1.59 1.72 1.79 1.78 1.70 1.62 1.61 1.68 1.73 1.74 1.76 1.95 2.20 2.26 2.25 2.22 2.07 1.81 1.65 1.67 1.64 1.73 1.82 1.94 1.92 1.74 1.55 1.39 1.38 1.46 1.64 1.89 2.20 2.22 2.01 1.87 1.83 1.88 1.87
1.30 1.32 1.36 1.29 1.27 1.33 1.47 1.63 1.66 1.67 1.67 1.67 1.72 1.76 1.83 1.90 2.07 2.27 2.35 2.39 2.28 2.05 1.77 1.58 1.47 1.44 1.47 1.65 1.77 1.72 1.60 1.47 1.35 1.34 1.41 1.55 1.83 2.13 2.07 1.90 1.79 1.80 1.83 1.85
1.31 1.31 1.36 1.36 1.32 1.26 1.32 1.42 1.49 1.61 1.71 1.72 1.83 1.93 1.96 1.95 2.06 2.31 2.51 2.48 2.14 1.80 1.61 1.56 1.39 1.28 1.30 1.52 1.62 1.54 1.50 1.47 1.42 1.45 1.51 1.67 1.95 2.13 2.04 1.91 1.85 1.83 1.83 1.89
1.32 1.28 1.29 1.40 1.45 1.39 1.38 1.43 1.44 1.50 1.62 1.65 1.75 1.89 1.91 1.99 1.98 1.97 2.07 2.25 2.07 1.84 1.50 1.33 1.28 1.33 1.40 1.52 1.53 1.47 1.49 1.50 1.50 1.54 1.61 1.76 1.91 1.97 1.94 1.90 1.93 1.89 1.87 1.90
1.34 1.30 1.30 1.42 1.54 1.56 1.45 1.45 1.48 1.55 1.64 1.62 1.65 1.73 1.85 2.00 1.98 2.00 1.90 1.75 1.70 1.67 1.43 1.29 1.32 1.38 1.42 1.42 1.51 1.54 1.58 1.56 1.50 1.52 1.60 1.69 1.78 1.83 1.86 1.89 1.87 1.81 1.85 1.82
1.29 1.32 1.37 1.37 1.42 1.57 1.66 1.63 1.63 1.66 1.67 1.54 1.46 1.45 1.58 1.73 1.71 1.64 1.69 1.74 1.67 1.61 1.43 1.38 1.36 1.34 1.37 1.32 1.41 1.53 1.61 1.53 1.45 1.44 1.52 1.59 1.62 1.67 1.80 1.90 1.85 1.78 1.74 1.70
1.43 1.45 1.47 1.47 1.54 1.66 1.72 1.69 1.74 1.78 1.74 1.57 1.43 1.33 1.34 1.53 1.64 1.54 1.57 1.60 1.59 1.52 1.40 1.39 1.40 1.44 1.41 1.43 1.46 1.46 1.43 1.35 1.34 1.37 1.45 1.54 1.60 1.62 1.69 1.71 1.63 1.65 1.65 1.61
1.57 1.51 1.47 1.48 1.52 1.56 1.57 1.69 1.80 1.78 1.81 1.77 1.59 1.36 1.31 1.39 1.44 1.50 1.57 1.56 1.58 1.63 1.45 1.36 1.34 1.38 1.40 1.50 1.51 1.41 1.29 1.27 1.30 1.31 1.38 1.49 1.50 1.56 1.63 1.61 1.53 1.56 1.55 1.52
1.52 1.47 1.43 1.44 1.41 1.37 1.37 1.48 1.66 1.79 1.94 1.95 1.73 1.42 1.33 1.38 1.44 1.49 1.51 1.52 1.59 1.63 1.57 1.44 1.34 1.32 1.33 1.38 1.40 1.33 1.26 1.22 1.23 1.27 1.32 1.34 1.38 1.48 1.55 1.58 1.50 1.47 1.49 1.48